Location: Unspecified
(41.9031°N, 12.4386°E)
Time: 15:54:21
(UTC+02:00)

ISS - Pass Details

Date: 30 May 2020
Orbit: 417 x 420 km, 51.6° (Epoch: 25 May)

Event Time Altitude Azimuth Distance (km) Brightness Sun altitude
Rises 23:59:41 0° 293° (WNW) 2,364 0.6 -24.4°
Reaches altitude 10° 00:02:09 10° 275° (W) 1,497 -0.7 -24.5°
Enters shadow 00:02:20 11° 273° (W) 1,444 -0.8 -24.5°
